Weather in Lakomaya Buda

Russia / Bryansk Oblast     52°29′13″N   32°08′23″E
temp.,
°C
wind,
m/s
gust,
m/s
humid.,
%
clouds,
%
prec.,
mm/h
press.,
hPa
HPBL,
m
20 june, sun
sun2000:00+18ese39940 0.0 1022163
03:00+17e37950 0.0 1022126
06:00+17e48925 0.0 1021186
09:00+21ese577586 0.0 1021453
12:00+24e676479 0.0 1020849
15:00+25ese6861100 0.0 1019928
18:00+24ese4773100 0.0 1019602
21:00+20e41086100 0.0 1019238
21 june, mon
mon2100:00+18ese4109391 0.0 1018202
03:00+17e499257 0.0 1018165
06:00+17e499152 0.0 1018206
09:00+22e597315 0.0 1017390
12:00+26ese79605 0.0 1016806
15:00+27ese6962100 0.0 1016956
18:00+26ese51070100 0.0 1015770
21:00+21ese4108956 0.0 1016232
22 june, tue
tue2200:00+19ese4119355 0.0 1016242
03:00+18ese49950 0.0 1016173
06:00+18ese399141 0.0 1016199
09:00+23se577014 0.0 1016412
12:00+27se68577 0.0 1016771
15:00+29se69548 0.0 10161171
18:00+27se596562 0.0 1016768
21:00+22ese41189100 0.0 1017215
23 june, wed
wed2300:00+20ese349366 0.0 101866
03:00+20e36955 0.0 101798
06:00+20e36930 0.0 1018144
09:00+25ese59720 0.0 1018424
12:00+29ese68585 0.0 1018813
15:00+30ese685691 0.0 10171211
18:00+29ese586850 0.0 1017726
21:00+24ese4986100 0.0 1018177
24 june, thu
thu2400:00+21se36946 0.0 1018102
03:00+20ese3493100 0.0 101955
06:00+21ese349175 0.0 101985
09:00+26ese577424 0.0 1019387
12:00+29se5659100 0.0 1019870
15:00+31se565173 0.0 10191434
18:00+30sse456157 0.0 1019470
21:00+23se47774 0.0 1018100